Location: *
(24.1434°N, 56.8729°E)
Time: 07:56:22
(UTC+00:00)

Cosmos 2151 Rocket - Pass Details

Date: 09 April 2020
Orbit: 618 x 642 km, 82.5° (Epoch: 24 May)

Event Time Altitude Azimuth Distance (km) Brightness Sun altitude
Rises 23:44:54 0° 1° (N) 2,888 7.3 -29.3°
Reaches altitude 10° 23:47:10 10° 6° (N) 1,981 6.5 -28.8°
Enters shadow 23:51:13 53° 70° (ENE) 764 4.2 -28.0°
